Regional Weather Roundup
Issued by NWS

Home | Current Version | Previous Version | Graphics & Text | Print | Product List | Glossary On
Versions: 1 2 3 4 5 6 7 8 9 10 11 12 13 14 15 16 17 18 19 20 21 22 23 24 25 26 27 28 29 30 31 32 33 34 35 36 37 38 39 40 41 42 43 44 45 46 47 48 49 50
000
ASUS43 KFSD 261302
RWRSD

WEATHER ROUNDUP FOR SOUTH DAKOTA
NATIONAL WEATHER SERVICE SIOUX FALLS SD
700 AM CST WED NOV 26 2014

NOTE: "FAIR" INDICATES FEW OR NO CLOUDS BELOW 12,000 FEET WITH NO
SIGNIFICANT WEATHER AND/OR OBSTRUCTIONS TO VISIBILITY.


SDZ001>005-009-010-012>017-261400-
NORTHWEST AND NORTH CENTRAL SOUTH DAKOTA

CITY           SKY/WX    TMP DP  RH WIND       PRES   REMARKS
BUFFALO          N/A     25  19  78 S3        30.11R
FAITH            N/A     21  17  84 N8        30.21R WCI  11
MOBRIDGE       CLOUDY    16  10  77 N13       30.24R WCI   2
$$

SDZ012>016-024>037-041>051-057-063-072>074-261400-
SOUTHWEST AND SOUTH CENTRAL SOUTH DAKOTA

CITY           SKY/WX    TMP DP  RH WIND       PRES   REMARKS
RAPID CTY ARPT CLOUDY    25  20  81 N8        30.17S WCI  16
PIERRE         CLOUDY    19  14  81 N15G24    30.25R WCI   5
CUSTER         CLOUDY    21  13  71 W5        30.06S WCI  15
ELLSWORTH AFB  PTCLDY    25  20  81 N8        30.17S WCI  16
PHILIP         CLOUDY    24  17  74 N8        30.25R WCI  15
PINE RIDGE     CLOUDY    25  19  78 N7        30.18R WCI  17
WINNER         CLOUDY    21  15  78 N23G30    30.20R WCI   5
$$

SDZ004>011-016>023-039-040-261400-
NORTHEAST SOUTH DAKOTA

CITY           SKY/WX    TMP DP  RH WIND       PRES   REMARKS
ABERDEEN       PTCLDY     8   3  80 N21       30.26R WCI -12
WATERTOWN      LGT SNOW  15  11  83 N22       30.10R FOG     WCI  -3
SISSETON         N/A     10   7  87 N20       30.21R WCI  -9
$$

SDZ017-020-022-023-036>040-048>070-261400-
SOUTHEAST SOUTH DAKOTA

CITY           SKY/WX    TMP DP  RH WIND       PRES   REMARKS
SIOUX FALLS    CLOUDY    26  22  84 N22G30    30.01R WCI  12
HURON          LGT SNOW  14  10  84 N26G35    30.17R FOG     WCI  -6
MITCHELL       FLURRIES  22  18  85 N22G33    30.14R WCI   6
YANKTON        CLOUDY   N/A N/A N/A N25G35    30.00R
$$

ABBREVIATIONS USED IN REMARKS
   TC - TEMPERATURE IN CELSIUS
  WCI - WIND CHILL INDEX
   HX - HEAT INDEX
  VSB - VISIBILITY




USA.gov is the U.S. government's official web portal to all federal, state and local government web resources and services.